Tracking 19796 objects as of 19-Jul-2019
HD Live streaming from Space Station
objects crossing your sky now

FLOCK 2EP 13


FLOCK 2EP 13 is no longer on orbit
FLOCK 2EP 13 is classified as:


NORAD ID: 41761
Int'l Code: 1998-067KH
Perigee: N/A
Apogee: N/A
Inclination: N/A
Period: N/A
Semi major axis: N/A
RCS: N/A
Launch date: November 30, -0001
Source: United States (US)
Launch site: ()
Decay date: 2018-06-03
aabbcc
Your satellite tracking list
Your tracking list is empty




NASA's NSSDC Master Catalog

Two Line Element Set (TLE):
1 41761U 98067KH  18154.58100078  .08792996  12263-4  92953-3 0  9996
2 41761  51.6029  31.3620 0010502 256.3270 103.6931 16.36585548 98182
Source of the keplerian elements: AFSPC